Location: ?
(35.4554°N, 139.3092°E)
Time: 21:55:00
(UTC+00:00)

COSMOS 2455 - Pass Details

Date: 21 April 2021
Orbit: 902 x 907 km, 67.1° (Epoch: 10 May)

Event Time Altitude Azimuth Distance (km) Brightness Sun altitude
Exits shadow 12:49:05 24° 264° (W) 1,770 4.5 -35.6°
Maximum altitude 12:51:31 33° 305° (NW) 1,486 4.3 -35.8°
Drops below altitude 10° 12:56:52 10° 8° (N) 2,594 5.7 -36.4°
Sets 12:59:40 0° 18° (NNE) 3,539 6.4 -36.7°
